Home > Time Zones > World Clock > Weather > U.S.A. > Erie > Past weeks

Flag for U.S.A. Weather past 2 weeks in Erie, Pennsylvania, U.S.A.

Now
76 °F

Sunny.


Feels Like: 78 °F
Forecast: 60 / 71 °F
Wind: 7 mph from Northeast

Location: Erie International Airport

Current Time: May 28, 2015 at 5:29:56 PM

Latest Report: May 28, 2015 at 4:51 PM


Visibility: 10 mi

Pressure: 30.24 "Hg

Humidity: 37%

Dew point: 48 °F

Location of ErieLocation

Historic Weather in Erie — Graph

°F

Erie temperature yesterday

Maximum temperature yesterday: 84 °F (at 4:51 PM)
Minimum temperature yesterday: 63 °F (at 7:51 PM)
Average temperature yesterday: 72 °F

Past Weeks' High & Low Weather Summary

 TemperatureHumidityPressure
High84 °F (May 27, 4:51 PM)90% (May 15, 10:51 PM)30.50 "Hg (May 15, 10:51 PM)
Low36 °F (May 23, 4:51 AM)15% (May 23, 5:51 PM)29.92 "Hg (May 19, 3:51 AM)
Average62 °F63%30.14 "Hg
* Reported May 13 3:51 PM — May 28 3:51 PM, Erie, Weather by CustomWeather, © 2015

Note: Actual official high and low records may vary slightly from our data, if they occured in-between our weather recording intervals... More about our weather records

Advertising

Erie weather history for previous 24 hours

 ConditionsComfort  
Time TempWeatherWind HumidityBarometerVisibility
3:51 PM
Thu, May 28
74 °FSunny.8 mph48%30.25 "Hg10 mi
2:51 PM69 °FSunny.3 mph59%30.28 "Hg10 mi
1:51 PM69 °FSunny.7 mph59%30.28 "Hg10 mi
12:51 PM68 °FSunny.6 mph61%30.28 "Hg10 mi
11:51 AM67 °FSunny.6 mph63%30.27 "Hg10 mi
10:51 AM67 °FSunny.6 mph63%30.26 "Hg10 mi
9:51 AM66 °FSunny.3 mph63%30.25 "Hg10 mi
8:51 AM64 °FSunny.7 mph65%30.24 "Hg10 mi
7:51 AM62 °FSunny.No wind75%30.23 "Hg10 mi
6:51 AM59 °FSunny.3 mph87%30.21 "Hg10 mi
5:51 AM59 °FClear.5 mph84%30.17 "Hg10 mi
4:51 AM61 °FPartly cloudy.10 mph87%30.15 "Hg10 mi
3:58 AM65 °FOvercast.7 mph85%30.13 "Hg10 mi
2:51 AM64 °FPassing clouds.9 mph87%30.10 "Hg10 mi
1:51 AM64 °FMostly cloudy.10 mph87%30.08 "Hg10 mi
12:51 AM64 °FLight rain. Overcast.12 mph87%30.06 "Hg10 mi
11:51 PM
Wed, May 27
64 °FLight rain. Overcast.12 mph84%30.06 "Hg7 mi
10:51 PM65 °FLight rain. Overcast.15 mph81%30.06 "Hg10 mi
9:51 PM65 °FLight rain. Overcast.12 mph85%30.06 "Hg10 mi
8:51 PM64 °FOvercast.6 mph87%30.04 "Hg10 mi
7:51 PM63 °FLight rain. Fog.6 mph87%30.07 "Hg4 mi
6:51 PM65 °FLight rain. Mostly cloudy.13 mph78%30.07 "Hg8 mi
5:51 PM81 °FPartly sunny.14 mph45%30.01 "Hg10 mi
Weather by CustomWeather, © 2015

See weather overviewHow to use our weather pages